Regional Weather Roundup
Issued by NWS State College, PA

Home | Current Version | Previous Version | Graphics & Text | Print | Product List | Glossary On
Versions: 1 2 3 4 5 6 7 8 9 10 11 12 13 14 15 16 17 18 19 20 21 22 23 24 25 26 27 28 29 30 31 32 33 34 35 36 37 38 39 40 41 42 43 44 45 46 47 48 49 50
344
ASUS41 KCTP 272110
RWRCTP

REGIONAL WEATHER ROUNDUP
NATIONAL WEATHER SERVICE STATE COLLEGE PA
500 PM EDT THU APR 27 2017

Note: "fair" indicates few or no clouds below 12,000 feet with no
significant weather and/or obstructions to visibility.

* = STATION THAT DOES NOT REPORT PRECIPITATION /E.G. RAIN...SNOW...ETC/
    THUNDER OR FOG.

PAZ002>004-007>009-013>016-020>023-029>032-272200-
WESTERN PENNSYLVANIA

CITY           SKY/WX    TMP DP  RH WIND       PRES   REMARKS
ERIE           CLOUDY    60  55  83 W8G21     29.58R
MEADVILLE      LGT RAIN  75  55  49 S14G23    29.62R
FRANKLIN*      PTSUNNY   68  55  64 SW12G28   29.67R
NEW CASTLE     FAIR      78  58  49 S8G16     29.63S
BEAVER COUNTY  NOT AVBL
BUTLER*        CLOUDY    70  57  64 SW12G20   29.68R
PITTSBURGH INT LGT RAIN  72  59  63 SW20G26   29.67R
PITTSBURGH     CLOUDY    77  52  41 SW14G22   29.66R
INDIANA*       PTSUNNY   77  61  57 S10       29.70S
LATROBE        CLOUDY    77  50  38 SW13      29.68R
WASHINGTON CO* CLOUDY    72  57  60 S10G17    29.70F
$$

PAZ004>006-010>012-017>019-024>028-033>037-041-042-045-046-049>053-272200-
CENTRAL PENNSYLVANIA

CITY           SKY/WX    TMP DP  RH WIND       PRES   REMARKS
BRADFORD       PTSUNNY   75  54  47 SE14G24   29.67F
DUBOIS         PTSUNNY   75  56  51 SE10G22   29.68R
CLEARFIELD     MOSUNNY   75  60  59 S9        29.72R
JOHNSTOWN      PTSUNNY   72  60  66 SE10      29.72F
ALTOONA        CLOUDY    73  62  68 S14       29.74R
STATE COLLEGE  MOSUNNY   70  59  68 S8        29.75R
WILLIAMSPORT   CLOUDY    78  62  57 MISG      29.69F
SELINSGROVE    CLOUDY    77  65  66 S8        29.72F
FT INDIANTOWN  PTSUNNY   79  64  60 S14       29.74F
CAPITAL CITY   MOSUNNY   82  60  47 S17G24    29.73F
HARRISBURG     PTSUNNY   78  61  55 S16       29.74S
YORK           PTSUNNY   77  65  66 SE10G23   29.75F
$$

PAZ038>040-043-044-047-048-054-055-060>062-067>071-272200-
EASTERN PENNSYLVANIA

CITY           SKY/WX    TMP DP  RH WIND       PRES   REMARKS
SCRANTON       CLOUDY    77  59  53 S9G17     29.76S
MOUNT POCONO   CLOUDY    68  61  78 S13       29.84R
ALLENTOWN      CLOUDY    80  61  52 S14G21    29.78F
QUAKERTOWN*    CLOUDY    77  63  61 S8        29.81S
READING        CLOUDY    80  64  58 S9        29.75F
LANCASTER      CLOUDY    78  69  73 SE16      29.76F
COATESVILLE    MOCLDY    75  64  69 SE8G18    29.81F
POTTSTOWN      CLOUDY    77  62  59 VRB7      29.80F
BLUE BELL      CLOUDY    73  63  68 SE9       29.82R
DOYLESTOWN     CLOUDY    75  64  68 VRB5      29.80S
WILLOW GROVE   NOT AVBL
NORTH PHILA    CLOUDY    77  64  64 SE15G25   29.82S
PHILADELPHIA   CLOUDY    78  63  59 S7        29.81S
$$




USA.gov is the U.S. government's official web portal to all federal, state and local government web resources and services.